Weather reports worldwide

Advertisment
Mafraq, Jordan (40265): temperature & dewpoint: 17.01.2019 04:00:00 - 23.01.2019 04:00:00 (EET)Mafraq, Jordan (40265): wind speed: 17.01.2019 04:00:00 - 23.01.2019 04:00:00 (EET)Mafraq, Jordan (40265): wind direction: 17.01.2019 04:00:00 - 23.01.2019 04:00:00 (EET)Mafraq, Jordan (40265): reduced air pressure: 17.01.2019 04:00:00 - 23.01.2019 04:00:00 (EET)Mafraq, Jordan (40265): visibility: 17.01.2019 04:00:00 - 23.01.2019 04:00:00 (EET)
Date & Time tt [°C] td [°C] ff [km/h] ff [kn] dd ppp [hPa] vv [km]
23.01.2019 04:00:00 - - - - - - -
23.01.2019 03:00:00 - - - - - - -
23.01.2019 02:00:00 4,8 4,3 0 0 N 1019,3 10
23.01.2019 01:00:00 - - - - - - -
23.01.2019 00:00:00 - - - - - - -
22.01.2019 23:00:00 5,4 3,1 0 0 N 1019,9 10
22.01.2019 22:00:00 - - - - - - -
22.01.2019 21:00:00 - - - - - - -
22.01.2019 20:00:00 9,6 4,1 0 0 N 1019,4 10
22.01.2019 19:00:00 - - - - - - -
22.01.2019 18:00:00 - - - - - - -
22.01.2019 17:00:00 14,0 0,3 0 0 N 1017,9 10
22.01.2019 16:00:00 - - - - - - -
22.01.2019 15:00:00 - - - - - - -
22.01.2019 14:00:00 16,0 0,3 0 0 N 1017,4 10
22.01.2019 13:00:00 - - - - - - -
22.01.2019 12:00:00 - - - - - - -
22.01.2019 11:00:00 11,8 1,0 18 10 SSE 1019,2 5
22.01.2019 10:00:00 - - - - - - -
22.01.2019 09:00:00 - - - - - - -
22.01.2019 08:00:00 5,0 1,1 8 4 S 1019,9 5
22.01.2019 07:00:00 - - - - - - -
22.01.2019 06:00:00 - - - - - - -
22.01.2019 05:00:00 4,8 -0,9 15 8 E 1018,1 5
22.01.2019 04:00:00 - - - - - - -
22.01.2019 03:00:00 - - - - - - -
22.01.2019 02:00:00 5,8 0,3 0 0 N 1019,2 10
22.01.2019 01:00:00 - - - - - - -
22.01.2019 00:00:00 - - - - - - -
21.01.2019 23:00:00 7,2 2,0 0 0 N 1019,9 10
21.01.2019 22:00:00 - - - - - - -
21.01.2019 21:00:00 - - - - - - -
21.01.2019 20:00:00 7,6 1,4 0 0 N 1021,0 10
21.01.2019 19:00:00 - - - - - - -
21.01.2019 18:00:00 - - - - - - -
21.01.2019 17:00:00 15,0 1,2 9 5 SSE 1019,6 5
21.01.2019 16:00:00 - - - - - - -
21.01.2019 15:00:00 - - - - - - -
21.01.2019 14:00:00 14,8 -0,4 11 6 S 1019,3 5
21.01.2019 13:00:00 - - - - - - -
21.01.2019 12:00:00 - - - - - - -
21.01.2019 11:00:00 11,4 1,3 11 6 SSE 1022,0 5
21.01.2019 10:00:00 - - - - - - -
21.01.2019 09:00:00 - - - - - - -
21.01.2019 08:00:00 4,6 0,6 0 0 N 1022,8 5
21.01.2019 07:00:00 - - - - - - -
21.01.2019 06:00:00 - - - - - - -
21.01.2019 05:00:00 4,4 -1,4 8 4 SSE 1021,4 6
21.01.2019 04:00:00 - - - - - - -
21.01.2019 03:00:00 - - - - - - -
21.01.2019 02:00:00 5,8 0,3 0 0 N 1019,2 10
21.01.2019 01:00:00 - - - - - - -
21.01.2019 00:00:00 - - - - - - -
20.01.2019 23:00:00 9,0 -0,2 8 4 ESE 1022,2 10
20.01.2019 22:00:00 - - - - - - -
20.01.2019 21:00:00 - - - - - - -
20.01.2019 20:00:00 8,6 0,4 0 0 N 1022,6 10
20.01.2019 19:00:00 - - - - - - -
20.01.2019 18:00:00 - - - - - - -
20.01.2019 17:00:00 11,6 0,1 8 4 SE 1022,0 5
20.01.2019 16:00:00 - - - - - - -
20.01.2019 15:00:00 - - - - - - -
20.01.2019 14:00:00 12,6 -0,7 15 8 SE 1022,4 5
20.01.2019 13:00:00 - - - - - - -
20.01.2019 12:00:00 - - - - - - -
20.01.2019 11:00:00 8,8 0,1 22 12 SE 1024,9 5
20.01.2019 10:00:00 - - - - - - -
20.01.2019 09:00:00 - - - - - - -
20.01.2019 08:00:00 5,2 -1,0 15 8 SE 1025,3 5
20.01.2019 07:00:00 - - - - - - -
20.01.2019 06:00:00 - - - - - - -
20.01.2019 05:00:00 1,2 -0,4 8 4 SSE 1024,5 7
20.01.2019 04:00:00 - - - - - - -
20.01.2019 03:00:00 - - - - - - -
20.01.2019 02:00:00 3,5 0,4 0 0 N 1024,3 10
20.01.2019 01:00:00 - - - - - - -
20.01.2019 00:00:00 - - - - - - -
19.01.2019 23:00:00 4,4 1,2 0 0 N 1024,7 10
19.01.2019 22:00:00 - - - - - - -
19.01.2019 21:00:00 - - - - - - -
19.01.2019 20:00:00 5,2 0,7 0 0 N 1025,2 10
19.01.2019 19:00:00 - - - - - - -
19.01.2019 18:00:00 - - - - - - -
19.01.2019 17:00:00 10,0 1,4 0 0 N 1024,0 10
19.01.2019 16:00:00 - - - - - - -
19.01.2019 15:00:00 - - - - - - -
19.01.2019 14:00:00 11,2 1,0 11 6 SSE 1023,8 7
19.01.2019 13:00:00 - - - - - - -
19.01.2019 12:00:00 - - - - - - -
19.01.2019 11:00:00 8,2 0,6 16 9 SSE 1025,8 6
19.01.2019 10:00:00 - - - - - - -
19.01.2019 09:00:00 - - - - - - -
19.01.2019 08:00:00 3,0 -0,7 0 0 N 1025,5 6
19.01.2019 07:00:00 - - - - - - -
19.01.2019 06:00:00 - - - - - - -
19.01.2019 05:00:00 0,0 -0,8 0 0 N 1024,9 5
19.01.2019 04:00:00 - - - - - - -
19.01.2019 03:00:00 - - - - - - -
19.01.2019 02:00:00 2,5 1,5 0 0 N 1024,4 6
19.01.2019 01:00:00 - - - - - - -
19.01.2019 00:00:00 - - - - - - -
18.01.2019 23:00:00 3,0 1,8 5 3 SSE 1025,1 7
18.01.2019 22:00:00 - - - - - - -
18.01.2019 21:00:00 - - - - - - -
18.01.2019 20:00:00 5,5 3,4 0 0 N 1025,2 10
18.01.2019 19:00:00 - - - - - - -
18.01.2019 18:00:00 - - - - - - -
18.01.2019 17:00:00 9,6 2,9 8 4 NW 1023,6 10
18.01.2019 16:00:00 - - - - - - -
18.01.2019 15:00:00 - - - - - - -
18.01.2019 14:00:00 10,5 4,0 18 10 WNW 1022,9 10
18.01.2019 13:00:00 - - - - - - -
18.01.2019 12:00:00 - - - - - - -
18.01.2019 11:00:00 8,4 4,5 0 0 N 1024,2 8
18.01.2019 10:00:00 - - - - - - -
18.01.2019 09:00:00 - - - - - - -
18.01.2019 08:00:00 5,2 2,9 0 0 N 1023,9 6
18.01.2019 07:00:00 - - - - - - -
18.01.2019 06:00:00 - - - - - - -
18.01.2019 05:00:00 4,0 1,5 0 0 N 1022,8 5
18.01.2019 04:00:00 - - - - - - -
18.01.2019 03:00:00 - - - - - - -
18.01.2019 02:00:00 5,0 3,1 7 4 NNW 1022,9 10
18.01.2019 01:00:00 - - - - - - -
18.01.2019 00:00:00 - - - - - - -
17.01.2019 23:00:00 5,9 3,9 11 6 WNW 1022,9 10
17.01.2019 22:00:00 - - - - - - -
17.01.2019 21:00:00 - - - - - - -
17.01.2019 20:00:00 - - 11 6 WNW 1021,8 10
17.01.2019 19:00:00 - - - - - - -
17.01.2019 18:00:00 - - - - - - -
17.01.2019 17:00:00 8,4 3,5 18 10 WNW 1021,0 5
17.01.2019 16:00:00 - - - - - - -
17.01.2019 15:00:00 - - - - - - -
17.01.2019 14:00:00 9,8 4,6 22 12 W 1019,7 5
17.01.2019 13:00:00 - - - - - - -
17.01.2019 12:00:00 - - - - - - -
17.01.2019 11:00:00 8,0 4,5 22 12 W 1019,7 5
17.01.2019 10:00:00 - - - - - - -
17.01.2019 09:00:00 - - - - - - -
17.01.2019 08:00:00 6,0 2,7 8 4 W 1018,5 5
17.01.2019 07:00:00 - - - - - - -
17.01.2019 06:00:00 - - - - - - -
17.01.2019 05:00:00 2,0 0,4 11 6 WSW 1015,2 4,0
17.01.2019 04:00:00 - - - - - - -

tt = temperature
td = dewpoint
ff = wind speed
dd = wind direction
ppp = reduced air pressure
vv = visibility

Next stations